Home > Weather > Stassfurt > Past weeks

Flag for Germany Past Weather in Stassfurt, Saxony-Anhalt, Germany — Yesterday and Last 2 Weeks

Now
64 °F

Clear.


Feels Like: 64 °F
Forecast: 59 / 74 °F
Wind: 5 mph from North

Location: Leipzig-Schkeuditz

Current Time: Jul 31, 2016 at 12:38:34 AM

Latest Report: Jul 31, 2016 at 12:20 AM


Visibility: 10 mi

Pressure: 29.92 "Hg

Humidity: 73%

Dew Point: 55 °F

Location of StassfurtLocation

Past Weather in Stassfurt — Graph

°F

Stassfurt Temperature Yesterday

Maximum temperature yesterday: 77 °F (at 4:20 PM)
Minimum temperature yesterday: 61 °F (at 5:20 AM)
Average temperature yesterday: 68 °F

High & Low Weather Summary for the Past Weeks

 TemperatureHumidityPressure
High88 °F (Jul 22, 3:20 PM)100% (Jul 17, 7:50 AM)30.27 "Hg (Jul 17, 7:50 AM)
Low48 °F (Jul 16, 5:50 AM)25% (Jul 23, 1:50 PM)29.89 "Hg (Jul 21, 4:50 AM)
Average71 °F67%30.05 "Hg
* Reported Jul 15 11:20 PM — Jul 30 11:20 PM, Stassfurt, Weather by CustomWeather, © 2016

Note: Actual official high and low records may vary slightly from our data, if they occured in-between our weather recording intervals... More about our weather records

Advertising

Stassfurt Weather History for the Previous 24 Hours

Scroll right to see more
 ConditionsComfort  
Time TempWeatherWind HumidityBarometerVisibility
11:20 PM
Sat, Jul 30
64 °FClear.3 mph73%29.92 "Hg10 mi
10:50 PM66 °FClear.2 mph68%29.92 "Hg10 mi
10:20 PM68 °FClear.6 mph64%29.92 "Hg10 mi
9:50 PM68 °FPassing clouds.3 mph64%29.92 "HgN/A
9:20 PM70 °FSunny.7 mph60%29.92 "Hg10 mi
8:50 PM70 °FSunny.6 mph64%29.89 "Hg10 mi
8:20 PM72 °FSunny.6 mph57%29.89 "Hg10 mi
7:50 PM73 °FSunny.9 mph53%29.89 "Hg10 mi
7:20 PM75 °FSunny.12 mph54%29.89 "Hg10 mi
6:50 PM75 °FSunny.13 mph54%29.89 "Hg10 mi
6:20 PM77 °FScattered clouds.13 mph47%29.89 "HgN/A
5:50 PM75 °FScattered clouds.13 mph54%29.89 "HgN/A
5:20 PM77 °FPassing clouds.15 mph51%29.89 "HgN/A
4:50 PM77 °FPassing clouds.16 mph54%29.89 "HgN/A
4:20 PM77 °FScattered clouds.10 mph57%29.89 "HgN/A
3:50 PM75 °FScattered clouds.10 mph61%29.89 "HgN/A
3:20 PM73 °FScattered clouds.7 mph65%29.89 "HgN/A
2:50 PM75 °FPassing clouds.7 mph65%29.89 "HgN/A
2:20 PM73 °FScattered clouds.5 mph69%29.89 "HgN/A
1:50 PM70 °FSprinkles. Broken clouds.2 mph78%29.92 "HgN/A
1:20 PM72 °FScattered showers. Broken clouds.5 mph69%29.92 "HgN/A
12:50 PM72 °FPartly sunny.6 mph65%29.89 "HgN/A
12:20 PM70 °FScattered clouds.5 mph69%29.92 "HgN/A
11:50 AM68 °FScattered clouds.7 mph73%29.92 "HgN/A
11:20 AM68 °FScattered showers. Broken clouds.12 mph78%29.92 "HgN/A
10:50 AM66 °FBroken clouds.10 mph83%29.92 "HgN/A
10:20 AM66 °FScattered showers. Partly sunny.5 mph83%29.92 "HgN/A
9:50 AM66 °FScattered showers. Partly sunny.6 mph83%29.92 "HgN/A
9:20 AM64 °FPartly sunny.7 mph88%29.92 "HgN/A
8:50 AM64 °FPartly sunny.6 mph88%29.92 "HgN/A
8:20 AM64 °FPartly sunny.6 mph88%29.92 "HgN/A
7:50 AM64 °FSunny.6 mph88%29.92 "Hg10 mi
7:20 AM63 °FSunny.7 mph88%29.92 "Hg10 mi
6:50 AM63 °FPartly sunny.9 mph94%29.92 "HgN/A
6:20 AM63 °FPassing clouds.7 mph88%29.92 "HgN/A
5:50 AM63 °FClear.6 mph94%29.92 "Hg10 mi
5:20 AM61 °FClear.6 mph94%29.92 "Hg10 mi
4:50 AM63 °FClear.5 mph94%29.92 "Hg10 mi
4:20 AM63 °FClear.7 mph94%29.89 "Hg10 mi
3:50 AM63 °FClear.6 mph94%29.89 "Hg10 mi
3:20 AM64 °FClear.6 mph94%29.89 "Hg10 mi
2:50 AM64 °FClear.7 mph94%29.89 "Hg10 mi
2:20 AM64 °FClear.8 mph94%29.89 "Hg10 mi
1:50 AM64 °FClear.8 mph94%29.89 "Hg10 mi
1:20 AM64 °FClear.8 mph94%29.89 "Hg10 mi
12:50 AM64 °FClear.8 mph94%29.89 "Hg10 mi
12:20 AM64 °FClear.9 mph94%29.89 "Hg10 mi
Weather by CustomWeather, © 2016

See weather overviewHow to use our weather pages